Szeged, Hungary

7:03 AM CEST on July 28, 2017 (GMT +0200)
Szeged

Weather History for LHUD - April, 2014

Change the Weather History Date:

Sunday, April 13, 2014

  Actual Average (LRAR) Record (LRAR)
Temperature  
Mean Temperature 55 °F -  
Max Temperature 65 °F 67 °F 75 °F (2016)
Min Temperature 45 °F 46 °F 30 °F (1997)
Degree Days  
Heating Degree Days 10    
Growing Degree Days 5 (Base 50)    
Moisture  
Dew Point 38 °F    
Average Humidity 52    
Maximum Humidity 81    
Minimum Humidity 20    
Precipitation  
Precipitation 0.00 in 0.06 in - ()
Sea Level Pressure  
Sea Level Pressure 29.99 in    
Wind  
Wind Speed 4 mph ()    
Max Wind Speed 9 mph    
Max Gust Speed -    
Visibility 12.2 miles    
Events      
Averages and records for this station are not official NWS values.
T = Trace of Precipitation, MM = Missing Value Source: Averaged Metar Reports

Daily Weather History Graph

Daily Weather History Graph

Search for Another Location

Airport or City:

Trip Planner

Search our weather history database for the weather conditions in past years. The results will help you decide how hot, cold, wet, or windy it might be!

Date:

Astronomy

Apr. 13, 2014 Rise Set
Actual Time 5:57 AM CEST 7:24 PM CEST
Civil Twilight 5:25 AM CEST 7:55 PM CEST
Nautical Twilight 4:48 AM CEST 8:33 PM CEST
Astronomical Twilight 4:07 AM CEST 9:14 PM CEST
Moon 5:38 PM CEST (4/13) 4:52 AM CEST (4/13)
Length of Visible Light 14h 29m
Length of Day
13h 26m
Waxing Gibbous, 96% of the Moon is Illuminated
Apr 13
Waxing Gibbous
Apr 15
Full
Apr 22
Last Quarter
Apr 29
New
May 7
First Quarter

Hourly Weather History & Observations

Time (CEST) Temp. Windchill Dew Point Humidity Pressure Visibility Wind Dir Wind Speed Gust Speed Precip Events Conditions
12:00 AM 50 °F - 40 °F 60% 30.04 in 19 mi ESE 6.7 mph - -   Partly Cloudy
12:45 AM 50.0 °F - 41.0 °F 71% 30.04 in - ESE 5.8 mph - N/A   Clear
1:00 AM 49 °F - 40 °F 62% 30.04 in 16 mi ESE 6.7 mph - -   Partly Cloudy
1:45 AM 48.2 °F - 39.2 °F 71% 30.04 in - SE 4.6 mph - N/A   Clear
2:00 AM 48 °F - 39 °F 63% 30.03 in 12 mi SE 4.5 mph - -   Partly Cloudy
2:45 AM 48.2 °F - 39.2 °F 71% 30.01 in - SE 4.6 mph - N/A   Clear
3:00 AM 47 °F - 39 °F 66% 30.01 in 16 mi SE 4.5 mph - -   Partly Cloudy
3:45 AM 48.2 °F - 39.2 °F 71% 30.01 in - SE 4.6 mph - N/A   Clear
4:00 AM 47 °F - 38 °F 63% 30.00 in 16 mi SE 4.5 mph - -   Partly Cloudy
4:45 AM 46.4 °F 45.2 °F 39.2 °F 76% 29.98 in - SE 3.5 mph - N/A   Clear
5:00 AM 47 °F - 39 °F 65% 29.99 in 16 mi SE 2.2 mph - -   Partly Cloudy
5:45 AM 46.4 °F - 39.2 °F 76% 30.01 in - SSE 1.2 mph - N/A   Clear
6:00 AM 46 °F - 39 °F 70% 30.00 in 12 mi SSE 2.2 mph - -   Partly Cloudy
6:15 AM 46.4 °F - 39.2 °F 76% 30.01 in - ESE 2.3 mph - N/A   Clear
6:45 AM 46.4 °F 43.5 °F 39.2 °F 76% 30.01 in - SE 5.8 mph - N/A   Clear
7:00 AM 46 °F - 39 °F 69% 30.01 in 9 mi SE 6.7 mph - -   Partly Cloudy
7:15 AM 46.4 °F 43.5 °F 39.2 °F 76% 30.01 in - ESE 5.8 mph - N/A   Clear
7:45 AM 46.4 °F 43.5 °F 39.2 °F 76% 30.01 in - SE 5.8 mph - N/A   Clear
8:00 AM 46 °F - 40 °F 72% 30.02 in 9 mi SE 6.7 mph - -   Partly Cloudy
8:15 AM 46.4 °F 43.5 °F 41.0 °F 81% 30.04 in - SE 5.8 mph - N/A   Clear
8:45 AM 50.0 °F - 41.0 °F 71% 30.01 in - SSE 5.8 mph - N/A   Clear
9:00 AM 49 °F - 41 °F 64% 30.02 in 11 mi SSE 6.7 mph - -   Partly Cloudy
9:15 AM 51.8 °F - 41.0 °F 67% 30.04 in - SSE 5.8 mph - N/A   Clear
9:45 AM 53.6 °F - 41.0 °F 62% 30.04 in - SSE 4.6 mph - N/A   Clear
10:00 AM 54 °F - 41 °F 52% 30.02 in 16 mi SSE 4.5 mph - -   Partly Cloudy
10:15 AM 55.4 °F - 41.0 °F 58% 30.04 in - SSE 4.6 mph - N/A   Clear
10:45 AM 57.2 °F - 42.8 °F 59% 30.01 in - South 4.6 mph - N/A   Clear
11:00 AM 57 °F - 43 °F 50% 30.02 in 17 mi South 4.5 mph - -   Partly Cloudy
11:15 AM 59.0 °F - 41.0 °F 51% 30.01 in 6.2 mi SW 3.5 mph - N/A   Partly Cloudy
11:45 AM 60.8 °F - 42.8 °F 52% 30.01 in 6.2 mi South 4.6 mph - N/A   Partly Cloudy
12:00 PM 61 °F - 42 °F 39% 30.01 in 19 mi South 4.5 mph - -   Partly Cloudy
12:15 PM 62.6 °F - 37.4 °F 39% 30.01 in 6.2 mi NW 4.6 mph - N/A   Scattered Clouds
12:45 PM 64.4 °F - 33.8 °F 32% 30.01 in 6.2 mi North 3.5 mph - N/A   Mostly Cloudy
1:00 PM 64 °F - 33 °F 20% 29.99 in 19 mi North 4.5 mph - -   Partly Cloudy
1:15 PM 64.4 °F - 33.8 °F 32% 29.98 in 6.2 mi North 4.6 mph - N/A   Mostly Cloudy
1:45 PM 62.6 °F - 33.8 °F 34% 29.98 in 6.2 mi WNW 3.5 mph - N/A   Mostly Cloudy
2:00 PM 63 °F - 33 °F 22% 29.98 in 19 mi WNW 4.5 mph - -   Partly Cloudy
2:15 PM 62.6 °F - 33.8 °F 34% 29.98 in 6.2 mi NW 4.6 mph - N/A   Mostly Cloudy
2:45 PM 62.6 °F - 33.8 °F 34% 29.98 in 6.2 mi NNE 3.5 mph - N/A   Mostly Cloudy
3:00 PM 63 °F - 35 °F 23% 29.96 in 19 mi NNE 4.5 mph - -   Partly Cloudy
3:15 PM 62.6 °F - 35.6 °F 37% 29.98 in 6.2 mi South 2.3 mph - N/A   Overcast
3:45 PM 62.6 °F - 33.8 °F 34% 29.98 in 6.2 mi South 3.5 mph - N/A   Overcast
4:00 PM 63 °F - 34 °F 22% 29.96 in 19 mi South 2.2 mph - -   Partly Cloudy
4:15 PM 62.6 °F - 33.8 °F 34% 29.95 in 6.2 mi South 2.3 mph - N/A   Scattered Clouds
4:45 PM 62.6 °F - 33.8 °F 34% 29.95 in 6.2 mi SSE 2.3 mph - N/A   Scattered Clouds
5:00 PM 63 °F - 33 °F 21% 29.95 in 19 mi SSE 2.2 mph - -   Mostly Cloudy
5:15 PM 64.4 °F - 32.0 °F 30% 29.95 in 6.2 mi Calm Calm - N/A   Mostly Cloudy
5:45 PM 62.6 °F - 33.8 °F 34% 29.95 in 6.2 mi SE 3.5 mph - N/A   Overcast
6:00 PM 63 °F - 34 °F 22% 29.95 in 19 mi SE 2.2 mph - -   Partly Cloudy
6:15 PM 62.6 °F - 35.6 °F 37% 29.95 in 6.2 mi SE 2.3 mph - N/A   Overcast
6:45 PM 62.6 °F - 33.8 °F 34% 29.95 in - Calm Calm - N/A   Clear
7:00 PM 62 °F - 34 °F 23% 29.95 in 17 mi Calm Calm - -   Partly Cloudy
7:15 PM 60.8 °F - 35.6 °F 39% 29.95 in - Calm Calm - N/A   Clear
7:45 PM 59.0 °F - 39.2 °F 48% 29.98 in - WNW 3.5 mph - N/A   Clear
8:00 PM 58 °F - 38 °F 36% 29.96 in 16 mi WNW 2.2 mph - -   Partly Cloudy
8:15 PM 57.2 °F - 39.2 °F 51% 29.98 in - West 2.3 mph - N/A   Clear
8:45 PM 55.4 °F - 37.4 °F 51% 29.98 in - West 3.5 mph - N/A   Clear
9:00 PM 56 °F - 38 °F 39% 29.98 in 16 mi West 4.5 mph - -   Partly Cloudy
9:15 PM 53.6 °F - 41.0 °F 62% 29.98 in - WNW 5.8 mph - N/A   Clear
9:45 PM 50.0 °F - 39.2 °F 66% 29.98 in - WNW 8.1 mph - N/A   Clear
10:00 PM 51 °F - 39 °F 52% 29.99 in 16 mi WNW 8.9 mph - -   Partly Cloudy
10:45 PM 51.8 °F - 41.0 °F 67% 29.98 in - West 6.9 mph - N/A   Clear
11:00 PM 52 °F - 42 °F 58% 29.99 in 16 mi West 6.7 mph - -   Partly Cloudy
11:45 PM 53.6 °F - 44.6 °F 72% 29.98 in - WNW 9.2 mph - N/A   Clear